Regional Weather Roundup
Issued by NWS

Home | Current Version | Previous Version | Graphics & Text | Print | Product List | Glossary On
Versions: 1 2 3 4 5 6 7 8 9 10 11 12 13 14 15 16 17 18 19 20 21 22 23 24 25 26 27 28 29 30 31 32 33 34 35 36 37 38 39 40 41 42 43 44 45 46 47 48 49 50
000
ASUS43 KOAX 181302
RWRNE

WEATHER ROUNDUP FOR NEBRASKA
NATIONAL WEATHER SERVICE OMAHA NE
800 AM CDT FRI AUG 18 2017

NOTES: SATELLITE DATA IS BEING USED TO AUGMENT CLOUD COVER ABOVE
       12000 FEET.
       "FAIR" INDICATES FEW OR NO CLOUDS BELOW 12,000 FEET WITH NO
       SIGNIFICANT WEATHER AND/OR OBSTRUCTIONS TO VISIBILITY.


NEZ001>004-019>022-054>056-181400-
NEBRASKA PANHANDLE

CITY           SKY/WX    TMP DP  RH WIND       PRES   REMARKS
SCOTTSBLUFF    CLEAR     53  49  86 NW8       30.13R
ALLIANCE       CLEAR     50  48  93 MISG      30.10R
CHADRON        CLEAR     53  49  86 CALM      30.07R
GORDON         FAIR      55  49  83 W6        30.07R
KIMBALL        CLEAR     54  48  80 W6        30.17R
SIDNEY         CLEAR     54  49  83 NW9       30.14R
$$

NEZ057>060-069>072-079>082-181400-
SOUTHWEST NEBRASKA

CITY           SKY/WX    TMP DP  RH WIND       PRES   REMARKS
NORTH PLATTE   SUNNY     58  56  93 CALM      30.03S
IMPERIAL       SUNNY     57  55  93 N7        30.06R
LEXINGTON      SUNNY     61  58  90 NW6       30.02R
MCCOOK         SUNNY     62  58  86 W3        30.02S
OGALLALA       SUNNY     56  55  94 CALM      30.07R
$$

NEZ005>010-023>029-035>040-094-181400-
NORTH CENTRAL NEBRASKA

CITY           SKY/WX    TMP DP  RH WIND       PRES   REMARKS
VALENTINE      SUNNY     58  52  80 SW10      29.99R
AINSWORTH      SUNNY     60  57  89 W8        29.99R
BROKEN BOW     SUNNY     61  57  87 S3        30.00R
O`NEILL        SUNNY     60  60 100 W5        29.97R
ORD            SUNNY     59  56  89 CALM      29.98R
THEDFORD       SUNNY     57  55  94 CALM      30.04R
$$

NEZ041-046>049-061>064-073>077-083>087-181400-
SOUTH CENTRAL NEBRASKA

CITY           SKY/WX    TMP DP  RH WIND       PRES   REMARKS
GRAND ISLAND   SUNNY     63  61  93 W9        29.98R
AURORA         SUNNY     62  61  95 NW3       29.97R
HASTINGS       SUNNY     64  59  83 W6        29.99R
HEBRON         MOSUNNY   67  62  83 CALM      29.95R
HOLDREGE       SUNNY     64  58  81 S8        30.00S
KEARNEY        SUNNY     64  59  83 NW6       30.00R
YORK           SUNNY     63  63 100 CALM      29.96R
$$

NEZ011>018-030>034-042>045-181400-
NORTHEAST NEBRASKA

CITY           SKY/WX    TMP DP  RH WIND       PRES   REMARKS
NORFOLK        SUNNY     62  58  86 W5        29.96R
ALBION         SUNNY     61  59  91 CALM      29.98R
BLAIR          RAIN      67  62  85 N6        29.93R
COLUMBUS       SUNNY     64  61  90 W5        29.98R
FREMONT        SUNNY     65  63  92 SW3       29.94R
TEKAMAH        SUNNY     66  61  84 CALM      29.91R
WAYNE          SUNNY     62  59  91 CALM      29.93F
$$

NEZ050>053-065>068-078-088>093-181400-
SOUTHEAST NEBRASKA

CITY           SKY/WX    TMP DP  RH WIND       PRES   REMARKS
LINCOLN        PTSUNNY   69  61  75 NW6       29.92R
OMAHA EPPLEY   MOSUNNY   68  62  81 N13       29.91R
BEATRICE       CLOUDY    69  61  75 SE7       29.90S
FALLS CITY     CLOUDY    63  60  90 SE6       29.92F
NEBRASKA CITY  CLOUDY    67  65  96 S7        29.91R
PLATTSMOUTH    SUNNY     66  62  85 S8        29.90R
$$

NEZ044-045-051>053-067-181400-
OMAHA AREA

CITY           SKY/WX    TMP DP  RH WIND       PRES   REMARKS
OMAHA EPPLEY   MOSUNNY   68  62  81 N13       29.91R
BLAIR          RAIN      67  62  85 N6        29.93R
FREMONT        SUNNY     65  63  92 SW3       29.94R
MILLARD        SUNNY     69  64  82 W3        29.91R
OFFUTT AFB     SUNNY     68  61  79 S5        29.89R
PLATTSMOUTH    SUNNY     66  62  85 S8        29.90R
WAHOO          FAIR      65  64  95 NW6       29.94R
$$




USA.gov is the U.S. government's official web portal to all federal, state and local government web resources and services.